Beatrice, NE

3:31 PM CST on December 09, 2019 (GMT -0600)
Beatrice Municipal

Weather History for KBIE - October, 2019

Change the Weather History Date:

Friday, October 25, 2019

  Actual Average Record
Temperature  
Mean Temperature 40 °F -  
Max Temperature 57 °F 63 °F 81 °F (1952)
Min Temperature 24 °F 38 °F 24 °F (2019)
Degree Days  
Heating Degree Days 25    
Moisture  
Dew Point 28 °F    
Average Humidity 66    
Maximum Humidity 95    
Minimum Humidity 32    
Precipitation  
Precipitation 0.00 in - - ()
Sea Level Pressure  
Sea Level Pressure 30.29 in    
Wind  
Wind Speed 2 mph (SSW)    
Max Wind Speed 9 mph    
Max Gust Speed -    
Visibility 10 miles    
Events      
Averages and records for this station are not official NWS values.
T = Trace of Precipitation, MM = Missing Value Source: NWS Daily Summary

Daily Weather History Graph

Daily Weather History Graph

Search for Another Location

Airport or City:

Astronomy

Oct. 25, 2019 Rise Set
Actual Time 7:48 AM CDT 6:33 PM CDT
Civil Twilight 7:20 AM CDT 7:00 PM CDT
Nautical Twilight 6:48 AM CDT 7:32 PM CDT
Astronomical Twilight 6:17 AM CDT 8:04 PM CDT
Moon 4:31 AM CDT (10/25) 5:36 PM CDT (10/25)
Length of Visible Light 11h 40m
Length of Day
10h 44m
Waning Crescent, 9% of the Moon is Illuminated
Oct 25
Waning Crescent
Oct 27
New
Nov 4
First Quarter
Nov 12
Full
Nov 19
Last Quarter

Hourly Weather History & Observations

Time (CDT) Temp. Windchill Dew Point Humidity Pressure Visibility Wind Dir Wind Speed Gust Speed Precip Events Conditions
12:15 AM 28.8 °F - 25.5 °F 88% 30.39 in 10.0 mi Calm Calm - N/A   Clear
12:55 AM 28.9 °F - 24.4 °F 83% 30.38 in 10.0 mi Calm Calm - N/A   Clear
1:15 AM 29.5 °F - 26.1 °F 87% 30.38 in 10.0 mi Calm Calm - N/A   Clear
1:35 AM 30.0 °F - 27.0 °F 88% 30.37 in 10.0 mi Calm Calm - N/A   Clear
1:55 AM 28.8 °F - 25.0 °F 86% 30.38 in 10.0 mi Calm Calm - N/A   Clear
2:15 AM 27.9 °F - 25.0 °F 89% 30.38 in 10.0 mi Calm Calm - N/A   Clear
2:35 AM 28.4 °F - 25.7 °F 90% 30.38 in 10.0 mi Calm Calm - N/A   Clear
2:55 AM 27.3 °F - 24.6 °F 90% 30.38 in 10.0 mi Calm Calm - N/A   Clear
3:15 AM 26.6 °F - 25.2 °F 94% 30.38 in 10.0 mi Calm Calm - N/A   Clear
3:35 AM 27.7 °F - 25.9 °F 93% 30.38 in 10.0 mi Calm Calm - N/A   Clear
3:55 AM 27.5 °F - 25.7 °F 93% 30.39 in 10.0 mi Calm Calm - N/A   Clear
4:15 AM 27.3 °F - 25.2 °F 92% 30.39 in 10.0 mi Calm Calm - N/A   Clear
4:35 AM 27.5 °F - 25.2 °F 91% 30.39 in 10.0 mi Calm Calm - N/A   Clear
4:55 AM 27.3 °F - 26.1 °F 95% 30.39 in 10.0 mi Calm Calm - N/A   Clear
5:15 AM 26.2 °F - 24.6 °F 94% 30.39 in 10.0 mi Calm Calm - N/A   Clear
5:35 AM 26.6 °F - 25.2 °F 94% 30.39 in 10.0 mi Calm Calm - N/A   Clear
5:55 AM 25.7 °F - 22.8 °F 89% 30.39 in 10.0 mi Calm Calm - N/A   Clear
6:15 AM 25.7 °F - 23.2 °F 90% 30.40 in 10.0 mi Calm Calm - N/A   Clear
6:35 AM 24.8 °F - 23.2 °F 94% 30.39 in 10.0 mi Calm Calm - N/A   Clear
6:55 AM 25.3 °F - 23.5 °F 93% 30.39 in 10.0 mi Calm Calm - N/A   Clear
7:15 AM 26.2 °F - 24.4 °F 93% 30.38 in 10.0 mi Calm Calm - N/A   Clear
7:35 AM 26.4 °F - 24.8 °F 94% 30.38 in 10.0 mi Calm Calm - N/A   Clear
7:55 AM 26.4 °F - 24.4 °F 92% 30.38 in 10.0 mi Calm Calm - N/A   Clear
8:15 AM 27.0 °F - 24.8 °F 92% 30.38 in 10.0 mi Calm Calm - N/A   Clear
8:35 AM 27.3 °F - 25.5 °F 93% 30.38 in 10.0 mi Calm Calm - N/A   Clear
8:55 AM 30.0 °F - 26.8 °F 88% 30.38 in 10.0 mi Calm Calm - N/A   Clear
9:15 AM 32.0 °F - 27.7 °F 84% 30.38 in 10.0 mi Calm Calm - N/A   Clear
9:35 AM 34.2 °F - 29.3 °F 82% 30.38 in 10.0 mi Calm Calm - N/A   Clear
9:50 AM 35.8 °F 33.0 °F 29.8 °F 79% 30.38 in 10.0 mi West 3.5 mph - N/A   Clear
10:15 AM 39.2 °F 35.9 °F 30.7 °F 72% 30.37 in 10.0 mi West 4.6 mph - N/A   Clear
10:35 AM 42.4 °F 39.6 °F 32.0 °F 67% 30.37 in 10.0 mi WSW 4.6 mph - N/A   Clear
10:55 AM 44.8 °F 42.4 °F 32.4 °F 62% 30.37 in 10.0 mi WSW 4.6 mph - N/A   Clear
11:15 AM 47.3 °F - 31.5 °F 54% 30.36 in 10.0 mi West 3.5 mph - N/A   Clear
11:35 AM 49.1 °F - 30.7 °F 49% 30.35 in 10.0 mi SW 4.6 mph - N/A   Clear
11:55 AM 50.4 °F - 30.7 °F 47% 30.35 in 10.0 mi WSW 3.5 mph - N/A   Clear
12:15 PM 51.4 °F - 29.5 °F 43% 30.34 in 10.0 mi WSW 5.8 mph - N/A   Clear
12:35 PM 52.2 °F - 30.0 °F 43% 30.33 in 10.0 mi SW 5.8 mph - N/A   Clear
12:55 PM 52.9 °F - 30.4 °F 42% 30.31 in 10.0 mi South 4.6 mph - N/A   Clear
1:15 PM 54.1 °F - 29.7 °F 39% 30.30 in 10.0 mi SSW 8.1 mph - N/A   Clear
1:35 PM 54.3 °F - 31.3 °F 42% 30.29 in 10.0 mi SW 8.1 mph - N/A   Clear
1:55 PM 54.3 °F - 31.1 °F 41% 30.27 in 10.0 mi South 9.2 mph - N/A   Clear
2:15 PM 55.2 °F - 30.7 °F 39% 30.26 in 10.0 mi SSW 6.9 mph - N/A   Clear
2:35 PM 55.4 °F - 29.7 °F 37% 30.24 in 10.0 mi SSW 6.9 mph - N/A   Clear
2:55 PM 55.9 °F - 29.1 °F 36% 30.24 in 10.0 mi SW 4.6 mph - N/A   Clear
3:15 PM 55.8 °F - 27.5 °F 34% 30.23 in 10.0 mi Calm Calm - N/A   Clear
3:35 PM 56.3 °F - 26.6 °F 32% 30.22 in 10.0 mi SSW 6.9 mph - N/A   Clear
3:55 PM 56.8 °F - 28.4 °F 34% 30.21 in 10.0 mi South 8.1 mph - N/A   Clear
4:15 PM 56.5 °F - 27.0 °F 32% 30.20 in 10.0 mi South 6.9 mph - N/A   Clear
4:35 PM 56.5 °F - 27.1 °F 32% 30.20 in 10.0 mi South 5.8 mph - N/A   Clear
4:55 PM 56.5 °F - 27.5 °F 33% 30.19 in 10.0 mi South 8.1 mph - N/A   Clear
5:15 PM 56.3 °F - 27.3 °F 33% 30.18 in 10.0 mi South 5.8 mph - N/A   Clear
5:35 PM 55.4 °F - 28.4 °F 36% 30.18 in 10.0 mi South 5.8 mph - N/A   Clear
5:55 PM 54.0 °F - 27.5 °F 36% 30.17 in 10.0 mi South 9.2 mph - N/A   Clear
6:15 PM 52.0 °F - 27.5 °F 39% 30.17 in 10.0 mi South 6.9 mph - N/A   Clear
6:35 PM 50.5 °F - 27.5 °F 41% 30.17 in 10.0 mi South 4.6 mph - N/A   Clear
6:55 PM 49.3 °F - 27.3 °F 43% 30.17 in 10.0 mi South 3.5 mph - N/A   Clear
7:15 PM 45.5 °F 44.2 °F 27.7 °F 50% 30.17 in 10.0 mi South 3.5 mph - N/A   Clear
7:35 PM 44.4 °F - 27.5 °F 52% 30.17 in 10.0 mi Calm Calm - N/A   Clear
7:55 PM 42.8 °F - 27.5 °F 55% 30.16 in 10.0 mi Calm Calm - N/A   Clear
8:15 PM 41.9 °F - 28.2 °F 58% 30.16 in 10.0 mi Calm Calm - N/A   Clear
8:35 PM 41.2 °F - 29.8 °F 64% 30.15 in 10.0 mi Calm Calm - N/A   Clear
8:55 PM 40.8 °F - 28.4 °F 61% 30.15 in 10.0 mi Calm Calm - N/A   Clear
9:15 PM 38.5 °F 35.0 °F 28.4 °F 67% 30.15 in 10.0 mi SE 4.6 mph - N/A   Clear
9:35 PM 41.4 °F 37.6 °F 28.9 °F 61% 30.15 in 10.0 mi SSE 5.8 mph - N/A   Clear
9:55 PM 41.2 °F 38.2 °F 28.9 °F 62% 30.14 in 10.0 mi SSE 4.6 mph - N/A   Clear
10:15 PM 40.8 °F 36.9 °F 28.4 °F 61% 30.14 in 10.0 mi SSE 5.8 mph - N/A   Clear
10:35 PM 40.3 °F 36.3 °F 28.4 °F 63% 30.13 in 10.0 mi SSE 5.8 mph - N/A   Clear
10:55 PM 40.5 °F 35.8 °F 28.6 °F 63% 30.12 in 10.0 mi SSE 6.9 mph - N/A   Clear
11:15 PM 40.3 °F 35.5 °F 29.1 °F 64% 30.12 in 10.0 mi SSE 6.9 mph - N/A   Clear
11:35 PM 41.0 °F 35.8 °F 29.8 °F 64% 30.11 in 10.0 mi SSE 8.1 mph - N/A   Clear
11:55 PM 40.1 °F 35.3 °F 29.8 °F 67% 30.10 in 10.0 mi SSE 6.9 mph - N/A   Clear